AAL1426 KSEA-KDFW

Flight info

Callsign AAL1426
Flight time N/A
Altitude 35000
Route SUMMA2 SUMMA J54 BKE HLE KD60S KD45W PNH MDANO VKTRY2
Aircraft B752/M-SDE3FGHIM3RWXY/LB1

Departure

Time 2026-05-04 03:32
Airport Seattle–Tacoma International Airport (KSEA)

Arrival

Time N/A
Airport Dallas Fort Worth International Airport (KDFW)
Time Latitude Longitude Altitude Speed Heading
2026-05-04 03:07 47.44582 -122.30122 385 ft 0 kts 132°
2026-05-04 03:21 47.44588 -122.30132 386 ft 2 kts 132°
2026-05-04 03:21 47.44597 -122.30148 386 ft 1 kts 132°
2026-05-04 03:21 47.44604 -122.30160 387 ft 2 kts 115°
2026-05-04 03:21 47.44607 -122.30180 387 ft 2 kts 85°
2026-05-04 03:22 47.44602 -122.30201 388 ft 2 kts 56°
2026-05-04 03:22 47.44592 -122.30215 388 ft 0 kts 28°
2026-05-04 03:22 47.44587 -122.30219 388 ft 1 kts 23°
2026-05-04 03:22 47.44586 -122.30220 388 ft 0 kts 24°
2026-05-04 03:23 47.44586 -122.30219 387 ft 0 kts 24°
2026-05-04 03:24 47.44590 -122.30217 388 ft 2 kts 24°
2026-05-04 03:24 47.44618 -122.30201 388 ft 6 kts 13°
2026-05-04 03:24 47.44626 -122.30199 388 ft 0 kts
2026-05-04 03:25 47.44627 -122.30199 388 ft 0 kts
2026-05-04 03:26 47.44633 -122.30198 388 ft 4 kts
2026-05-04 03:26 47.44678 -122.30240 390 ft 11 kts 307°
2026-05-04 03:26 47.44737 -122.30354 394 ft 14 kts 310°
2026-05-04 03:26 47.44780 -122.30450 396 ft 0 kts 288°
2026-05-04 03:27 47.44785 -122.30487 397 ft 9 kts 276°
2026-05-04 03:27 47.44768 -122.30593 396 ft 12 kts 225°
2026-05-04 03:27 47.44664 -122.30630 392 ft 18 kts 180°
2026-05-04 03:27 47.44521 -122.30631 389 ft 24 kts 181°
2026-05-04 03:28 47.44334 -122.30634 382 ft 28 kts 181°
2026-05-04 03:28 47.44128 -122.30636 378 ft 29 kts 180°
2026-05-04 03:28 47.43911 -122.30638 369 ft 32 kts 180°
2026-05-04 03:28 47.43682 -122.30636 358 ft 32 kts 171°
2026-05-04 03:29 47.43472 -122.30559 347 ft 32 kts 180°
2026-05-04 03:29 47.43290 -122.30559 334 ft 22 kts 185°
2026-05-04 03:29 47.43193 -122.30615 325 ft 6 kts 228°
2026-05-04 03:29 47.43182 -122.30637 324 ft 0 kts 242°
2026-05-04 03:30 47.43170 -122.30703 321 ft 12 kts 266°
2026-05-04 03:30 47.43217 -122.30798 323 ft 11 kts 350°
2026-05-04 03:30 47.43313 -122.30804 330 ft 26 kts
2026-05-04 03:31 47.43679 -122.30803 355 ft 79 kts
2026-05-04 03:31 47.44416 -122.30796 384 ft 130 kts
2026-05-04 03:31 47.45465 -122.30783 518 ft 166 kts
2026-05-04 03:31 47.46667 -122.30766 1002 ft 179 kts
2026-05-04 03:32 47.47903 -122.30680 1739 ft 178 kts
2026-05-04 03:32 47.49177 -122.30553 2025 ft 193 kts
2026-05-04 03:32 47.50577 -122.30545 2243 ft 214 kts 360°
2026-05-04 03:32 47.52114 -122.30608 2630 ft 229 kts 358°
2026-05-04 03:33 47.53769 -122.30721 2975 ft 247 kts 358°
2026-05-04 03:33 47.55559 -122.30875 3456 ft 260 kts 357°
2026-05-04 03:33 47.57343 -122.30939 4177 ft 261 kts
2026-05-04 03:33 47.59014 -122.29964 4877 ft 264 kts 37°
2026-05-04 03:34 47.60185 -122.27866 5501 ft 272 kts 66°
2026-05-04 03:34 47.60523 -122.25153 6238 ft 276 kts 93°
2026-05-04 03:34 47.60109 -122.22306 6933 ft 281 kts 105°
2026-05-04 03:34 47.59189 -122.19747 7578 ft 288 kts 131°
2026-05-04 03:35 47.57564 -122.18030 8234 ft 293 kts 159°
2026-05-04 03:35 47.55555 -122.17546 8874 ft 298 kts 186°
2026-05-04 03:35 47.53551 -122.18321 9594 ft 298 kts 201°
2026-05-04 03:35 47.51556 -122.19178 10215 ft 302 kts 189°
2026-05-04 03:36 47.49416 -122.19445 10560 ft 318 kts 180°
2026-05-04 03:36 47.47095 -122.19299 10805 ft 337 kts 175°
2026-05-04 03:36 47.44683 -122.18935 11039 ft 356 kts 173°
2026-05-04 03:36 47.42189 -122.18451 11676 ft 360 kts 172°
2026-05-04 03:37 47.39684 -122.17904 12364 ft 363 kts 171°
2026-05-04 03:37 47.37187 -122.17325 12931 ft 369 kts 170°
2026-05-04 03:37 47.34641 -122.16713 13609 ft 370 kts 170°
2026-05-04 03:37 47.32077 -122.16088 14160 ft 375 kts 169°
2026-05-04 03:38 47.29530 -122.15462 14713 ft 379 kts 169°
2026-05-04 03:38 47.26918 -122.14816 15360 ft 380 kts 169°
2026-05-04 03:38 47.24264 -122.14159 15855 ft 385 kts 169°
2026-05-04 03:38 47.21646 -122.13511 16429 ft 387 kts 169°
2026-05-04 03:39 47.18998 -122.12856 16924 ft 391 kts 169°
2026-05-04 03:39 47.16299 -122.12188 17474 ft 393 kts 169°
2026-05-04 03:39 47.13597 -122.11520 17961 ft 396 kts 169°
2026-05-04 03:39 47.10851 -122.10841 18363 ft 402 kts 169°
2026-05-04 03:40 47.08104 -122.10163 18936 ft 402 kts 169°
2026-05-04 03:40 47.05331 -122.09479 19301 ft 409 kts 169°
2026-05-04 03:40 47.02523 -122.08787 19816 ft 410 kts 169°
2026-05-04 03:40 46.99715 -122.08096 20329 ft 413 kts 168°
2026-05-04 03:41 46.96865 -122.07395 20777 ft 416 kts 169°
2026-05-04 03:41 46.94010 -122.06695 21316 ft 418 kts 169°
2026-05-04 03:41 46.91127 -122.05988 21751 ft 421 kts 168°
2026-05-04 03:41 46.88220 -122.05276 22228 ft 424 kts 169°
2026-05-04 03:42 46.85316 -122.04565 22617 ft 428 kts 168°
2026-05-04 03:42 46.82344 -122.03839 23071 ft 430 kts 168°
2026-05-04 03:42 46.79352 -122.03108 23507 ft 433 kts 168°
2026-05-04 03:42 46.76374 -122.02383 23954 ft 435 kts 168°
2026-05-04 03:43 46.73328 -122.01640 24272 ft 440 kts 168°
2026-05-04 03:43 46.70291 -122.00898 24692 ft 442 kts 167°
2026-05-04 03:43 46.67275 -121.99754 25013 ft 443 kts 157°
2026-05-04 03:43 46.64467 -121.97867 25530 ft 437 kts 146°
2026-05-04 03:44 46.61962 -121.95362 25791 ft 438 kts 136°
2026-05-04 03:44 46.59808 -121.92264 26202 ft 434 kts 126°
2026-05-04 03:44 46.58067 -121.88738 26603 ft 432 kts 118°
2026-05-04 03:44 46.56491 -121.85008 26921 ft 434 kts 117°
2026-05-04 03:45 46.54944 -121.81278 27357 ft 434 kts 117°
2026-05-04 03:45 46.53405 -121.77499 27659 ft 437 kts 116°
2026-05-04 03:45 46.51857 -121.73667 27987 ft 440 kts 116°
2026-05-04 03:45 46.50330 -121.69865 28405 ft 439 kts 116°
2026-05-04 03:46 46.48787 -121.66012 28703 ft 443 kts 116°
2026-05-04 03:46 46.47249 -121.62167 29051 ft 444 kts 116°
2026-05-04 03:46 46.45689 -121.58275 29409 ft 445 kts 116°
2026-05-04 03:46 46.44128 -121.54376 29684 ft 449 kts 116°
2026-05-04 03:47 46.42568 -121.50485 29999 ft 450 kts 116°
2026-05-04 03:47 46.40998 -121.46574 30346 ft 451 kts 116°
2026-05-04 03:47 46.39418 -121.42645 30633 ft 453 kts 116°
2026-05-04 03:47 46.37823 -121.38684 30913 ft 455 kts 116°
2026-05-04 03:48 46.36230 -121.34731 31172 ft 457 kts 116°